Terug naar catalogus

STARLINK-4206

ActiefCommunicatieVLEO
NORAD 52847·PAYLOAD·🇺🇸 United States

Gelanceerd Jun 17, 2022 vanaf Cape Canaveral Space Force Station

Loading…

Volgende Passages (komende 24 uur)

TLE

VersSource: CelesTrak SupGP

Epoch: Sep 14, 2026, 21:33 UTC

1 52847C 22062T   26257.89840278  .00050970  00000+0  15058-2 0  2574
2 52847  53.1579 255.6614 0001180  92.3718 300.6189 15.34368190    15

Volg STARLINK-4206 in realtime met AllMySat

Download on the App Store